Weather History for K2WX - July, 2013

Change the Weather History Date:

Friday, July 5, 2013

  Actual Average Record
Temperature  
Mean Temperature 75 °F 69 °F  
Max Temperature 87 °F 83 °F 96 °F (2002)
Min Temperature 62 °F 56 °F 50 °F (1999)
Degree Days  
Heating Degree Days 0 1  
Month to date heating degree days 0 5  
Since 1 June heating degree days 89 119  
Since 1 July heating degree days 0 5  
Cooling Degree Days 10 5  
Month to date cooling degree days 42 24  
Year to date cooling degree days 98 92  
Since 1 June cooling degree days 88 86  
Growing Degree Days 24 (Base 50)    
Moisture  
Dew Point 59 °F    
Average Humidity 61    
Maximum Humidity 84    
Minimum Humidity 37    
Precipitation  
Precipitation 0.00 in 0.07 in 0.92 in (2004)
Month to date precipitation 0.00 0.34  
Year to date precipitation 5.86 9.01  
Sea Level Pressure  
Sea Level Pressure 29.69 in    
Wind  
Wind Speed 10 mph (SE)    
Max Wind Speed 23 mph    
Max Gust Speed 29 mph    
T = Trace of Precipitation, MM = Missing Value Source: NWS Daily Summary

Daily Weather History Graph

Daily Weather History Graph

Search for Another Location

Airport or City:

Trip Planner

Search our weather history database for the weather conditions in past years. The results will help you decide how hot, cold, wet, or windy it might be!

Date:

Astronomy

Jul. 05, 2013 Rise Set
Actual Time 5:11 AM MDT 8:45 PM MDT
Civil Twilight 4:34 AM MDT 9:23 PM MDT
Nautical Twilight 3:44 AM MDT 10:12 PM MDT
Astronomical Twilight 2:38 AM MDT 11:18 PM MDT
Moon 3:15 AM MDT (7/5) 6:39 PM MDT (7/5)
Length of Visible Light 16h 49m
Length of Day
15h 34m
Waning Crescent, 6% of the Moon is Illuminated
Jul 5
Waning Crescent
Jul 8
New
Jul 15
First Quarter
Jul 22
Full
Jul 29
Last Quarter

Hourly Weather History & Observations

Time (MDT) Temp. Heat Index Dew Point Humidity Pressure Visibility Wind Dir Wind Speed Gust Speed Precip Events Conditions
12:56 AM 68.0 °F - 57.0 °F 68% 29.72 in - East 8.1 mph - N/A   Unknown
1:56 AM 64.9 °F - 57.9 °F 78% 29.73 in - West 4.6 mph - N/A   Unknown
2:56 AM 66.9 °F - 57.0 °F 70% 29.70 in - SE 9.2 mph - N/A   Unknown
3:56 AM 66.0 °F - 57.0 °F 73% 29.70 in - ESE 6.9 mph - N/A   Unknown
4:56 AM 64.9 °F - 57.0 °F 75% 29.69 in - East 4.6 mph - N/A   Unknown
5:56 AM 63.0 °F - 57.0 °F 81% 29.69 in - NE 6.9 mph - N/A   Unknown
6:56 AM 64.9 °F - 57.9 °F 78% 29.69 in - NE 9.2 mph - N/A   Unknown
7:56 AM 69.1 °F - 57.9 °F 68% 29.70 in - South 5.8 mph - N/A   Unknown
8:56 AM 71.1 °F - 59.0 °F 66% 29.71 in - SSE 4.6 mph - N/A   Unknown
9:56 AM 73.0 °F - 59.0 °F 61% 29.70 in - SE 6.9 mph - N/A   Unknown
10:56 AM 75.0 °F - 61.0 °F 62% 29.70 in - South 6.9 mph - N/A   Unknown
11:56 AM 78.1 °F - 60.1 °F 54% 29.69 in - South 10.4 mph - N/A   Unknown
12:56 PM 82.0 °F 82.1 °F 59.0 °F 45% 29.68 in - SSE 11.5 mph 18.4 mph N/A   Unknown
1:56 PM 86.0 °F 84.9 °F 57.0 °F 37% 29.66 in - SSE 15.0 mph 24.2 mph N/A   Unknown
2:56 PM 84.9 °F 83.9 °F 57.0 °F 38% 29.66 in - SSE 15.0 mph 24.2 mph N/A   Unknown
3:56 PM 82.0 °F 82.4 °F 60.1 °F 47% 29.66 in - SSE 17.3 mph - N/A   Unknown
4:56 PM 82.9 °F 82.6 °F 57.9 °F 42% 29.64 in - SSE 19.6 mph 26.5 mph N/A   Unknown
5:56 PM 82.0 °F 82.0 °F 57.9 °F 44% 29.64 in - South 16.1 mph - N/A   Unknown
6:56 PM 78.1 °F - 57.9 °F 50% 29.65 in - SSE 16.1 mph - N/A   Unknown
7:56 PM 75.0 °F - 60.1 °F 60% 29.68 in - SSE 6.9 mph - N/A   Unknown
8:56 PM 73.9 °F - 60.1 °F 62% 29.70 in - Calm Calm - N/A   Unknown
9:56 PM 71.1 °F - 61.0 °F 70% 29.70 in - NE 6.9 mph - N/A   Unknown
10:56 PM 68.0 °F - 61.0 °F 78% 29.70 in - East 10.4 mph - N/A   Unknown
11:56 PM 66.9 °F - 61.0 °F 81% 29.68 in - East 12.7 mph - N/A   Unknown